{"data":{"norad_id":57197,"epoch":"2026-09-21T22:06:37.095552Z","epoch_age_seconds":82278,"freshness":"FRESH","line1":"1 57197U 23091AH  26264.92126268  .00013680  00000+0  34430-3 0  9994","line2":"2 57197  97.4992 336.7352 0007854  94.2321 265.9823 15.40016972179585","mean_motion":15.40016972,"eccentricity":0.0007854,"inclination_deg":97.4992,"raan_deg":336.7352,"arg_perigee_deg":94.2321,"mean_anomaly_deg":265.9823,"bstar":0.0003443,"rev_number":17958,"period_min":93.50546300343,"perigee_km":440.69945575288,"apogee_km":451.41890311153,"semimajor_km":6824.1961794322,"source":"CELESTRAK","updated_at":"2026-09-22T09:00:26.080903Z"}}